Date String (YYYY-MM-DD hh:mm:ss) UTC,Instrument flags,Ambient pressure (hPa),Sample flow (lpm),Bypass flow (lpm),Sample temperature (°C),Ambient temperature (°C),ASC tube jacket temperature (°C),LED temperature (°C),Box temperature (°C),Sample RH (%),Span deviation,Mass concentration (μg/m³),Mass concentration (μg/m³),Mass concentration (μg/m³)
DateTimeUTC,F1_M11,P_M11,Q1_M11,Q2_M11,T1_M11,T2_M11,T3_M11,T4_M11,T5_M11,U1_M11,ZSPAN_M11,X2_M11,X0_M11,X1_M11
2022-12-12 06:00:00,,0815.3,5.01,0.00,25.9,24.3,00.0,34.9,27.6,05.8,0000.0,0003.65,0006.70,0003.31
2022-12-12 06:01:00,,0815.3,5.01,0.00,25.9,24.3,00.0,34.9,27.6,05.9,0000.0,0003.57,0007.00,0003.24
2022-12-12 06:02:00,,0815.3,5.00,0.00,25.9,24.3,00.0,34.9,27.6,05.9,0000.0,0003.54,0007.44,0003.22
2022-12-12 06:03:00,,0815.3,4.99,0.00,25.8,24.3,00.0,34.9,27.6,05.9,0000.0,0003.55,0007.63,0003.21
2022-12-12 06:04:00,,0815.4,4.99,0.00,25.8,24.3,00.0,34.9,27.6,05.8,0000.0,0003.56,0007.74,0003.21
2022-12-12 06:05:00,,0815.3,5.00,0.00,25.8,24.3,00.0,34.8,27.6,05.8,0000.0,0003.54,0007.52,0003.21
2022-12-12 06:06:00,,0815.3,5.01,0.00,25.8,24.3,00.0,34.8,27.6,05.7,0000.0,0003.56,0007.48,0003.22
2022-12-12 06:07:00,,0815.3,5.00,0.00,25.8,24.3,00.0,34.8,27.6,05.7,0000.0,0003.50,0007.34,0003.19
2022-12-12 06:08:00,,0815.3,5.01,0.00,25.8,24.3,00.0,34.8,27.6,05.8,0000.0,0003.49,0007.80,0003.17
2022-12-12 06:09:00,,0815.3,5.01,0.00,25.8,24.3,00.0,34.8,27.5,05.9,0000.0,0003.55,0008.89,0003.21
2022-12-12 06:10:00,,0815.2,5.00,0.00,25.8,24.3,00.0,34.8,27.5,06.0,0000.0,0003.66,0009.54,0003.28
2022-12-12 06:11:00,,0815.3,4.99,0.00,25.8,24.3,00.0,34.8,27.5,06.0,0000.0,0003.78,0009.77,0003.38
2022-12-12 06:12:00,,0815.6,5.00,0.00,25.8,24.3,00.0,34.8,27.6,05.9,0000.0,0003.88,0009.57,0003.46
2022-12-12 06:13:00,,0815.3,5.01,0.00,25.8,24.2,00.0,34.8,27.5,05.7,0000.0,0003.90,0009.68,0003.47
2022-12-12 06:14:00,,0815.3,5.01,0.00,25.8,24.2,00.0,34.8,27.5,05.7,0000.0,0003.91,0009.64,0003.45
2022-12-12 06:15:00,,0815.3,5.00,0.00,25.8,24.3,00.0,34.8,27.6,05.7,0000.0,0003.87,0009.83,0003.42
2022-12-12 06:16:00,,0815.3,4.99,0.00,25.8,24.3,00.0,34.8,27.6,05.8,0000.0,0003.86,0009.97,0003.40
2022-12-12 06:17:00,,0815.4,5.00,0.00,25.8,24.3,00.0,34.8,27.6,05.9,0000.0,0003.87,0009.92,0003.41
2022-12-12 06:18:00,,0815.4,5.00,0.00,25.8,24.3,00.0,34.7,27.6,06.1,0000.0,0003.98,0010.13,0003.48
2022-12-12 06:19:00,,0815.4,5.00,0.00,25.8,24.3,00.0,34.7,27.5,06.2,0000.0,0004.13,0009.92,0003.61
2022-12-12 06:20:00,,0815.3,5.01,0.00,25.8,24.3,00.0,34.7,27.5,06.2,0000.0,0004.23,0009.80,0003.70
2022-12-12 06:21:00,,0815.4,5.00,0.00,25.8,24.2,00.0,34.7,27.5,06.1,0000.0,0004.24,0009.54,0003.72
2022-12-12 06:22:00,,0815.4,5.00,0.00,25.8,24.2,00.0,34.7,27.5,06.2,0000.0,0004.24,0009.68,0003.74
2022-12-12 06:23:00,,0815.4,4.99,0.00,25.8,24.2,00.0,34.7,27.6,06.3,0000.0,0004.36,0010.16,0003.83
2022-12-12 06:24:00,,0815.3,4.99,0.00,25.8,24.2,00.0,34.7,27.6,06.3,0000.0,0004.55,0010.28,0003.99
2022-12-12 06:25:00,,0815.3,5.00,0.00,25.8,24.1,00.0,34.7,27.6,06.3,0000.0,0004.73,0010.64,0004.16
2022-12-12 06:26:00,,0815.3,5.01,0.00,25.7,24.1,00.0,34.7,27.5,06.3,0000.0,0004.91,0011.18,0004.32
2022-12-12 06:27:00,,0815.4,5.01,0.00,25.7,24.1,00.0,34.7,27.5,06.3,0000.0,0005.08,0011.70,0004.44
2022-12-12 06:28:00,,0815.4,5.00,0.00,25.7,24.1,00.0,34.7,27.5,06.3,0000.0,0005.16,0012.88,0004.52
2022-12-12 06:29:00,,0815.3,5.00,0.00,25.7,24.2,00.0,34.7,27.5,06.3,0000.0,0005.20,0013.28,0004.57
2022-12-12 06:30:00,,0815.3,5.00,0.00,25.7,24.2,00.0,34.7,27.5,06.4,0000.0,0005.18,0013.23,0004.56
2022-12-12 06:31:00,,0815.4,5.00,0.00,25.7,24.2,00.0,34.7,27.5,06.4,0000.0,0005.17,0012.86,0004.56
2022-12-12 06:32:00,,0815.4,5.00,0.00,25.7,24.2,00.0,34.7,27.5,06.4,0000.0,0005.24,0013.29,0004.59
2022-12-12 06:33:00,,0815.4,5.00,0.00,25.7,24.2,00.0,34.7,27.5,06.2,0000.0,0005.20,0013.21,0004.59
2022-12-12 06:34:00,,0815.4,5.00,0.00,25.7,24.1,00.0,34.7,27.5,06.2,0000.0,0005.12,0013.48,0004.53
2022-12-12 06:35:00,,0815.3,4.99,0.00,25.7,24.0,00.0,34.6,27.5,06.2,0000.0,0005.01,0013.89,0004.45
2022-12-12 06:36:00,,0815.3,5.00,0.00,25.7,24.0,00.0,34.6,27.5,06.2,0000.0,0004.97,0013.75,0004.41
2022-12-12 06:37:00,,0815.2,5.00,0.00,25.7,24.0,00.0,34.6,27.5,06.3,0000.0,0004.98,0013.49,0004.41
2022-12-12 06:38:00,,0815.3,5.01,0.00,25.7,24.1,00.0,34.6,27.5,06.3,0000.0,0004.95,0013.07,0004.41
2022-12-12 06:39:00,,0815.4,5.00,0.00,25.7,24.1,00.0,34.6,27.5,06.3,0000.0,0004.97,0012.31,0004.42
2022-12-12 06:40:00,,0815.3,5.00,0.00,25.7,24.1,00.0,34.6,27.5,06.3,0000.0,0004.97,0012.75,0004.43
2022-12-12 06:41:00,,0815.3,5.00,0.00,25.6,24.1,00.0,34.6,27.4,06.1,0000.0,0004.86,0013.28,0004.35
2022-12-12 06:42:00,,0815.3,5.00,0.00,25.6,24.1,00.0,34.6,27.4,06.1,0000.0,0004.73,0012.77,0004.22
2022-12-12 06:43:00,,0815.2,4.99,0.00,25.6,24.1,00.0,34.6,27.3,06.1,0000.0,0004.58,0011.96,0004.10
2022-12-12 06:44:00,,0815.3,5.00,0.00,25.6,24.1,00.0,34.6,27.3,06.3,0000.0,0004.48,0011.76,0003.98
2022-12-12 06:45:00,,0815.4,5.00,0.00,25.6,24.0,00.0,34.6,27.3,06.1,0000.0,0004.38,0010.87,0003.90
2022-12-12 06:46:00,,0815.2,5.00,0.00,25.6,24.0,00.0,34.6,27.3,06.0,0000.0,0004.30,0010.10,0003.82
2022-12-12 06:47:00,,0815.2,5.00,0.00,25.6,24.0,00.0,34.5,27.3,05.9,0000.0,0004.20,0009.82,0003.73
2022-12-12 06:48:00,,0815.1,5.01,0.00,25.6,24.0,00.0,34.5,27.3,05.9,0000.0,0003.99,0009.23,0003.58
2022-12-12 06:49:00,,0815.0,5.01,0.00,25.6,24.0,00.0,34.5,27.3,06.2,0000.0,0003.82,0008.73,0003.44
2022-12-12 06:50:00,,0814.9,4.99,0.00,25.5,23.9,00.0,34.5,27.2,06.3,0000.0,0003.65,0008.34,0003.30
2022-12-12 06:51:00,,0815.1,4.99,0.00,25.5,23.9,00.0,34.5,27.2,06.2,0000.0,0003.51,0007.33,0003.17
2022-12-12 06:52:00,,0815.1,5.00,0.00,25.5,23.9,00.0,34.5,27.2,06.2,0000.0,0003.51,0006.51,0003.12
2022-12-12 06:53:00,,0815.1,5.01,0.00,25.5,23.9,00.0,34.5,27.2,06.0,0000.0,0003.52,0006.42,0003.13
2022-12-12 06:54:00,,0815.0,5.01,0.00,25.5,23.8,00.0,34.5,27.1,06.0,0000.0,0003.46,0006.38,0003.06
2022-12-12 06:55:00,,0815.0,4.99,0.00,25.5,23.8,00.0,34.5,27.1,06.2,0000.0,0003.42,0006.87,0002.99
2022-12-12 06:56:00,,0814.9,4.99,0.00,25.4,23.8,00.0,34.5,27.1,06.2,0000.0,0003.41,0007.17,0002.98
2022-12-12 06:57:00,,0814.9,5.00,0.00,25.4,23.8,00.0,34.4,27.1,06.2,0000.0,0003.40,0007.17,0002.97
2022-12-12 06:58:00,,0814.9,5.00,0.00,25.4,23.8,00.0,34.4,27.0,06.2,0000.0,0003.39,0007.01,0002.97
2022-12-12 06:59:00,,0814.9,5.01,0.00,25.4,23.7,00.0,34.4,27.0,06.2,0000.0,0003.48,0007.50,0003.06
